SCP
0 0 0 0 -0 -0 0 0 0 0 0 0 0 0 0 0 0 0 0 0 0 0 0 -0 -0 -0 0 0 0 0 0 0
0 0 0 0 -0 0 0 0 0 0 0 -0 0 0 0 0 0 0 0 0 1 0 0 -0 -0 -0 -0 0 0 0 0 0
0 0 0 0 0 0 0 0 0 0 0 0 0 0 -0 -0 -0 0 0 1 1 1 1 0 -0 -0 0 -0 -0 -0 0 0
0 0 0 0 0 -0 0 0 0 0 0 0 0 0 0 -0 -0 0 0 1 1 1 1 0 0 0 0 -0 -0 -0 -0 -0
0 0 0 0 -0 0 0 0 0 0 0 0 0 0 0 -0 -0 0 1 1 1 1 1 1 1 0 0 0 -0 -0 -0 -0
0 0 0 0 0 0 0 0 0 0 -0 0 0 0 0 0 -0 0 2 1 1 1 2 1 1 1 0 0 0 -0 -0 -0
0 0 0 0 0 0 0 0 0 0 0 0 0 0 0 0 0 1 2 1 1 1 1 1 1 1 1 0 0 0 0 -0
0 0 0 0 0 -0 0 0 0 0 0 0 0 0 0 0 0 0 2 2 1 0 1 0 1 1 1 1 0 0 0 0
0 0 0 0 0 0 0 0 0 0 0 0 0 0 0 0 0 0 0 2 0 0 1 1 0 1 0 0 0 0 0 0
0 0 0 0 0 0 0 0 0 0 0 0 0 0 0 0 0 0 0 -0 1 0 0 0 1 1 0 0 0 0 0 0
0 0 0 0 0 0 0 0 -0 0 0 0 0 0 0 0 0 0 0 0 0 1 0 0 1 1 1 0 0 0 0 0
0 0 0 0 0 0 0 -0 -0 0 0 0 0 0 0 0 0 0 0 0 0 2 1 0 3 3 2 1 0 0 0 0
0 0 0 0 0 0 0 0 0 0 0 0 0 0 0 0 0 0 0 0 0 1 3 2 1 2 2 1 1 0 0 0
0 0 0 0 0 0 0 0 0 0 0 0 0 0 0 0 0 0 0 0 0 0 0 3 3 4 5 2 3 1 2 1
0 0 0 0 0 0 0 0 0 0 0 0 0 0 0 0 0 0 0 0 0 0 1 3 2 3 3 4 3 2 1 3
0 0 0 0 0 0 0 0 0 0 0 0 0 0 0 0 0 0 0 0 0 0 1 2 3 2 2 3 4 2 2 1
-0 0 0 0 0 0 0 0 0 0 0 0 0 0 0 0 0 0 0 0 0 0 0 0 5 6 5 1 2 2 2 1
0 0 0 0 0 0 0 0 0 0 0 0 0 0 0 0 0 0 0 0 0 0 0 0 1 3 6 5 2 2 1 1
0 0 0 0 0 0 0 0 0 0 0 0 0 0 0 0 0 0 0 0 0 0 0 0 0 0 0 1 4 4 2 2
0 0 0 0 0 0 0 0 0 0 0 0 0 0 0 0 0 0 0 0 0 0 0 0 0 0 0 0 0 2 1 2
Wind_Speed_500mb
3 6 11 13 8 23 24 34 36 22 24 21 21 30 15 17 7 4 13 33 52 58 61 62 61 57 52 48 43 41 40 38
2 18 27 30 16 30 13 22 31 27 10 27 17 20 19 19 11 12 16 26 50 59 64 65 64 61 55 51 46 43 40 37
7 17 23 36 28 16 14 23 33 44 34 27 36 33 17 28 15 23 26 19 50 59 66 66 65 65 60 52 46 43 41 37
10 18 28 27 39 37 41 28 44 32 38 26 30 31 25 16 7 21 37 29 44 59 64 66 65 65 63 56 50 43 41 39
17 29 34 31 54 39 42 43 59 32 10 16 26 22 20 9 18 12 40 40 33 57 63 65 63 62 61 56 50 48 43 38
23 24 29 39 10 16 10 41 59 43 12 8 27 9 15 34 16 19 39 41 30 49 61 65 65 62 59 57 53 47 45 42
24 31 30 59 18 31 44 14 26 40 59 23 13 0 7 25 23 9 35 41 31 35 56 64 65 64 62 58 55 51 46 43
18 25 28 48 41 32 12 24 24 37 29 47 5 3 13 22 28 33 25 47 36 28 37 64 64 63 64 62 58 54 51 46
32 52 60 49 46 56 14 16 41 43 47 55 17 5 3 12 16 22 28 36 39 32 23 62 69 61 61 62 59 56 52 49
55 68 62 31 50 35 44 19 48 62 54 45 49 14 16 25 15 16 25 12 36 39 28 40 68 58 50 57 58 57 55 51
63 61 60 55 40 33 59 64 46 42 53 51 47 40 26 31 32 19 15 17 24 43 33 30 48 44 35 33 46 57 55 54
40 42 42 18 16 35 57 57 58 57 46 62 53 43 44 36 32 42 21 21 6 48 42 39 43 41 40 41 29 31 52 52
24 30 20 29 21 33 55 57 54 62 34 48 56 57 54 50 55 48 55 38 29 36 49 48 42 52 42 36 40 35 28 32
13 17 37 23 38 35 56 42 49 64 57 48 45 62 62 46 53 58 53 59 42 38 48 45 41 45 65 43 43 38 48 34
31 31 31 25 47 39 61 57 45 49 59 68 58 50 53 52 58 66 51 57 54 45 50 46 39 39 57 66 57 53 56 47
20 13 21 16 35 20 28 20 33 44 48 42 40 20 7 43 54 58 53 52 57 54 48 52 44 31 25 40 64 73 61 58
16 26 24 24 18 18 23 24 26 37 42 28 29 33 29 26 43 50 51 55 59 49 52 54 55 57 56 37 36 61 81 80
20 25 27 22 22 20 15 14 27 33 51 47 54 53 48 32 50 55 50 42 47 52 48 56 49 55 58 56 41 43 49 44
19 29 23 19 25 20 17 26 40 51 72 67 54 61 58 54 60 43 34 29 33 35 35 32 41 59 57 60 59 66 59 50
27 13 7 10 26 24 15 24 29 46 65 79 65 68 69 68 69 58 39 29 31 27 28 31 29 36 49 71 76 72 71 61
Wind_Direction_500mb
173 217 223 251 276 1 344 6 12 12 30 81 112 79 74 46 57 183 202 185 166 162 160 158 155 155 155 154 152 149 145 143
182 261 270 263 330 307 339 341 12 351 33 79 97 96 94 94 320 210 216 194 177 167 164 163 161 160 161 161 159 157 154 151
267 265 268 277 269 313 0 341 348 359 336 95 78 70 71 46 161 265 205 198 186 173 169 168 167 166 168 169 168 166 163 160
267 271 270 274 274 292 284 312 315 341 10 66 71 67 37 23 84 232 232 200 194 180 176 173 174 174 175 175 174 175 172 169
259 259 272 275 294 208 216 261 272 276 354 65 48 57 48 19 19 198 229 197 190 190 182 179 179 182 183 182 182 180 181 180
265 269 275 280 273 187 195 222 261 273 240 135 26 4 57 44 22 185 208 191 189 197 191 186 183 187 191 191 190 191 188 186
247 257 274 285 293 213 210 199 212 232 252 246 10 213 88 40 50 165 199 192 190 201 204 196 192 190 193 198 198 198 199 196
241 261 266 276 287 297 180 201 236 248 242 245 219 348 43 33 16 45 205 193 198 208 216 209 202 197 197 201 204 206 205 205
257 255 256 264 278 289 231 204 205 221 225 233 212 136 237 13 6 5 38 229 205 208 222 211 209 204 205 205 209 210 212 211
246 258 267 268 280 292 296 257 231 222 222 233 250 232 241 277 305 333 355 39 218 207 212 208 213 209 216 216 216 217 218 214
259 253 259 271 273 276 281 288 294 262 221 209 260 232 247 268 253 233 287 334 204 203 197 187 206 212 224 231 235 230 225 226
280 277 269 260 286 293 273 286 291 290 249 215 211 247 244 222 241 237 250 257 212 212 201 179 187 197 213 222 229 233 233 232
287 286 284 295 291 265 275 277 269 277 276 212 215 220 232 245 242 245 237 244 243 193 196 189 193 202 201 213 221 229 228 229
275 275 266 241 262 256 264 260 246 263 271 267 231 230 228 241 235 239 227 228 237 213 199 202 214 217 216 201 202 215 229 227
273 242 239 214 243 245 243 250 258 259 258 260 266 253 219 236 227 220 217 216 226 215 216 221 217 224 226 215 201 192 202 213
255 287 332 285 252 228 216 262 276 267 269 253 225 204 222 214 205 212 221 213 225 215 210 214 206 204 222 220 216 213 211 209
319 325 326 302 299 301 257 244 276 286 302 218 221 231 243 220 229 213 211 211 215 223 217 217 220 222 220 257 226 228 229 223
316 309 296 301 296 284 254 231 246 277 281 265 236 227 233 232 217 204 207 204 218 226 224 218 214 222 223 214 252 240 238 221
258 271 276 298 291 299 277 285 281 267 264 263 263 221 209 209 194 189 194 204 221 224 233 232 219 220 216 216 210 229 240 231
290 329 270 4 299 286 294 296 289 274 264 253 248 228 207 196 191 192 185 196 215 234 243 248 245 231 226 234 229 230 233 248
Wind_Speed_850mb
3 6 11 13 8 23 24 34 36 22 24 21 21 30 15 17 7 4 13 33 52 58 61 62 61 57 52 48 43 41 40 38
2 18 27 30 16 30 13 22 31 27 10 27 17 20 19 19 11 12 16 26 50 59 64 65 64 61 55 51 46 43 40 37
7 17 23 36 28 16 14 23 33 44 34 27 36 33 17 28 15 23 26 19 50 59 66 66 65 65 60 52 46 43 41 37
10 18 28 27 39 37 41 28 44 32 38 26 30 31 25 16 7 21 37 29 44 59 64 66 65 65 63 56 50 43 41 39
17 29 34 31 54 39 42 43 59 32 10 16 26 22 20 9 18 12 40 40 33 57 63 65 63 62 61 56 50 48 43 38
23 24 29 39 10 16 10 41 59 43 12 8 27 9 15 34 16 19 39 41 30 49 61 65 65 62 59 57 53 47 45 42
24 31 30 59 18 31 44 14 26 40 59 23 13 0 7 25 23 9 35 41 31 35 56 64 65 64 62 58 55 51 46 43
18 25 28 48 41 32 12 24 24 37 29 47 5 3 13 22 28 33 25 47 36 28 37 64 64 63 64 62 58 54 51 46
32 52 60 49 46 56 14 16 41 43 47 55 17 5 3 12 16 22 28 36 39 32 23 62 69 61 61 62 59 56 52 49
55 68 62 31 50 35 44 19 48 62 54 45 49 14 16 25 15 16 25 12 36 39 28 40 68 58 50 57 58 57 55 51
63 61 60 55 40 33 59 64 46 42 53 51 47 40 26 31 32 19 15 17 24 43 33 30 48 44 35 33 46 57 55 54
40 42 42 18 16 35 57 57 58 57 46 62 53 43 44 36 32 42 21 21 6 48 42 39 43 41 40 41 29 31 52 52
24 30 20 29 21 33 55 57 54 62 34 48 56 57 54 50 55 48 55 38 29 36 49 48 42 52 42 36 40 35 28 32
13 17 37 23 38 35 56 42 49 64 57 48 45 62 62 46 53 58 53 59 42 38 48 45 41 45 65 43 43 38 48 34
31 31 31 25 47 39 61 57 45 49 59 68 58 50 53 52 58 66 51 57 54 45 50 46 39 39 57 66 57 53 56 47
20 13 21 16 35 20 28 20 33 44 48 42 40 20 7 43 54 58 53 52 57 54 48 52 44 31 25 40 64 73 61 58
16 26 24 24 18 18 23 24 26 37 42 28 29 33 29 26 43 50 51 55 59 49 52 54 55 57 56 37 36 61 81 80
20 25 27 22 22 20 15 14 27 33 51 47 54 53 48 32 50 55 50 42 47 52 48 56 49 55 58 56 41 43 49 44
19 29 23 19 25 20 17 26 40 51 72 67 54 61 58 54 60 43 34 29 33 35 35 32 41 59 57 60 59 66 59 50
27 13 7 10 26 24 15 24 29 46 65 79 65 68 69 68 69 58 39 29 31 27 28 31 29 36 49 71 76 72 71 61
Wind_Direction_850mb
173 217 223 251 276 1 344 6 12 12 30 81 112 79 74 46 57 183 202 185 166 162 160 158 155 155 155 154 152 149 145 143
182 261 270 263 330 307 339 341 12 351 33 79 97 96 94 94 320 210 216 194 177 167 164 163 161 160 161 161 159 157 154 151
267 265 268 277 269 313 0 341 348 359 336 95 78 70 71 46 161 265 205 198 186 173 169 168 167 166 168 169 168 166 163 160
267 271 270 274 274 292 284 312 315 341 10 66 71 67 37 23 84 232 232 200 194 180 176 173 174 174 175 175 174 175 172 169
259 259 272 275 294 208 216 261 272 276 354 65 48 57 48 19 19 198 229 197 190 190 182 179 179 182 183 182 182 180 181 180
265 269 275 280 273 187 195 222 261 273 240 135 26 4 57 44 22 185 208 191 189 197 191 186 183 187 191 191 190 191 188 186
247 257 274 285 293 213 210 199 212 232 252 246 10 213 88 40 50 165 199 192 190 201 204 196 192 190 193 198 198 198 199 196
241 261 266 276 287 297 180 201 236 248 242 245 219 348 43 33 16 45 205 193 198 208 216 209 202 197 197 201 204 206 205 205
257 255 256 264 278 289 231 204 205 221 225 233 212 136 237 13 6 5 38 229 205 208 222 211 209 204 205 205 209 210 212 211
246 258 267 268 280 292 296 257 231 222 222 233 250 232 241 277 305 333 355 39 218 207 212 208 213 209 216 216 216 217 218 214
259 253 259 271 273 276 281 288 294 262 221 209 260 232 247 268 253 233 287 334 204 203 197 187 206 212 224 231 235 230 225 226
280 277 269 260 286 293 273 286 291 290 249 215 211 247 244 222 241 237 250 257 212 212 201 179 187 197 213 222 229 233 233 232
287 286 284 295 291 265 275 277 269 277 276 212 215 220 232 245 242 245 237 244 243 193 196 189 193 202 201 213 221 229 228 229
275 275 266 241 262 256 264 260 246 263 271 267 231 230 228 241 235 239 227 228 237 213 199 202 214 217 216 201 202 215 229 227
273 242 239 214 243 245 243 250 258 259 258 260 266 253 219 236 227 220 217 216 226 215 216 221 217 224 226 215 201 192 202 213
255 287 332 285 252 228 216 262 276 267 269 253 225 204 222 214 205 212 221 213 225 215 210 214 206 204 222 220 216 213 211 209
319 325 326 302 299 301 257 244 276 286 302 218 221 231 243 220 229 213 211 211 215 223 217 217 220 222 220 257 226 228 229 223
316 309 296 301 296 284 254 231 246 277 281 265 236 227 233 232 217 204 207 204 218 226 224 218 214 222 223 214 252 240 238 221
258 271 276 298 291 299 277 285 281 267 264 263 263 221 209 209 194 189 194 204 221 224 233 232 219 220 216 216 210 229 240 231
290 329 270 4 299 286 294 296 289 274 264 253 248 228 207 196 191 192 185 196 215 234 243 248 245 231 226 234 229 230 233 248